EJU48A EPKK-EPGD

Flight info

Callsign EJU48A
Flight time 0h 57m
Altitude 36000
Route NAVUR N744 OVBOR N133 GRUDA Z95 OSLOG
Aircraft A20N/M-SDE2E3FGHIRWXY/LB1

Departure

Time 2026-05-06 15:52
Airport Kraków John Paul II International Airport (EPKK)

Arrival

Time 2026-05-06 16:49
Airport Gdańsk Lech Wałęsa Airport (EPGD)
Time Latitude Longitude Altitude Speed Heading
2026-05-06 15:10 50.07287 19.79890 788 ft 0 kts 167°
2026-05-06 15:41 50.07288 19.79890 788 ft 0 kts 167°
2026-05-06 15:42 50.07293 19.79888 788 ft 1 kts 167°
2026-05-06 15:42 50.07298 19.79886 788 ft 1 kts 167°
2026-05-06 15:42 50.07304 19.79885 788 ft 1 kts 167°
2026-05-06 15:42 50.07310 19.79883 788 ft 1 kts 167°
2026-05-06 15:43 50.07321 19.79879 788 ft 2 kts 167°
2026-05-06 15:43 50.07332 19.79875 788 ft 2 kts 167°
2026-05-06 15:43 50.07348 19.79869 788 ft 3 kts 167°
2026-05-06 15:43 50.07364 19.79864 788 ft 0 kts 165°
2026-05-06 15:44 50.07376 19.79850 788 ft 2 kts 102°
2026-05-06 15:44 50.07376 19.79832 788 ft 0 kts 79°
2026-05-06 15:47 50.07377 19.79838 788 ft 2 kts 79°
2026-05-06 15:47 50.07379 19.79857 788 ft 0 kts 79°
2026-05-06 15:47 50.07382 19.79881 788 ft 6 kts 79°
2026-05-06 15:48 50.07396 19.79990 788 ft 14 kts 76°
2026-05-06 15:48 50.07423 19.80158 788 ft 18 kts 76°
2026-05-06 15:48 50.07454 19.80344 788 ft 14 kts 68°
2026-05-06 15:48 50.07526 19.80406 788 ft 13 kts 19°
2026-05-06 15:49 50.07620 19.80408 788 ft 15 kts 347°
2026-05-06 15:49 50.07729 19.80371 788 ft 17 kts 347°
2026-05-06 15:49 50.07836 19.80334 788 ft 0 kts 348°
2026-05-06 15:49 50.07842 19.80332 788 ft 3 kts 348°
2026-05-06 15:50 50.07872 19.80323 788 ft 6 kts 348°
2026-05-06 15:50 50.07923 19.80302 788 ft 9 kts 345°
2026-05-06 15:50 50.07971 19.80282 787 ft 12 kts 344°
2026-05-06 15:50 50.08010 19.80199 787 ft 10 kts 258°
2026-05-06 15:51 50.07994 19.80080 788 ft 12 kts 257°
2026-05-06 15:51 50.07971 19.79913 787 ft 32 kts 257°
2026-05-06 15:51 50.07879 19.79244 788 ft 92 kts 257°
2026-05-06 15:51 50.07704 19.78019 790 ft 138 kts 257°
2026-05-06 15:52 50.07488 19.76449 1002 ft 155 kts 258°
2026-05-06 15:52 50.07280 19.74874 1656 ft 142 kts 259°
2026-05-06 15:52 50.07089 19.73348 2130 ft 143 kts 257°
2026-05-06 15:52 50.06923 19.71915 2822 ft 129 kts 257°
2026-05-06 15:53 50.06757 19.70483 3175 ft 141 kts 256°
2026-05-06 15:53 50.06514 19.68946 3591 ft 151 kts 253°
2026-05-06 15:53 50.06252 19.67360 4238 ft 151 kts 253°
2026-05-06 15:53 50.06199 19.65713 4948 ft 159 kts 276°
2026-05-06 15:54 50.06683 19.64069 5518 ft 180 kts 306°
2026-05-06 15:54 50.07787 19.62960 6046 ft 203 kts 341°
2026-05-06 15:54 50.09232 19.62491 6571 ft 220 kts 346°
2026-05-06 15:54 50.10801 19.62018 7072 ft 235 kts 345°
2026-05-06 15:55 50.12462 19.61546 7575 ft 254 kts 353°
2026-05-06 15:55 50.14323 19.61947 7771 ft 289 kts 21°
2026-05-06 15:55 50.16070 19.63653 7808 ft 301 kts 40°
2026-05-06 15:55 50.17640 19.65811 7811 ft 301 kts 43°
2026-05-06 15:56 50.19176 19.68033 7807 ft 302 kts 43°
2026-05-06 15:56 50.20724 19.70244 7807 ft 302 kts 43°
2026-05-06 15:56 50.22292 19.72435 7812 ft 302 kts 42°
2026-05-06 15:56 50.23871 19.74601 7810 ft 303 kts 41°
2026-05-06 15:57 50.25454 19.76758 7812 ft 301 kts 41°
2026-05-06 15:57 50.27035 19.78907 7813 ft 301 kts 41°
2026-05-06 15:57 50.28622 19.81067 7815 ft 303 kts 41°
2026-05-06 15:57 50.30204 19.83224 7814 ft 301 kts 41°
2026-05-06 15:58 50.31786 19.85380 7817 ft 302 kts 41°
2026-05-06 15:58 50.33366 19.87538 7818 ft 303 kts 41°
2026-05-06 15:58 50.35098 19.89424 8014 ft 306 kts 22°
2026-05-06 15:58 50.37146 19.90214 8842 ft 303 kts
2026-05-06 15:59 50.39247 19.90242 9842 ft 304 kts 357°
2026-05-06 15:59 50.41401 19.90252 10459 ft 318 kts 358°
2026-05-06 15:59 50.43704 19.90277 10727 ft 344 kts 358°
2026-05-06 15:59 50.46164 19.90309 10825 ft 357 kts 358°
2026-05-06 16:00 50.48649 19.90351 10823 ft 358 kts 358°
2026-05-06 16:00 50.51146 19.90392 11013 ft 361 kts 358°
2026-05-06 16:00 50.53592 19.90432 11543 ft 362 kts 358°
2026-05-06 16:00 50.56177 19.90473 11764 ft 361 kts 358°
2026-05-06 16:01 50.58694 19.90510 11815 ft 363 kts 358°
2026-05-06 16:01 50.61215 19.90544 11818 ft 362 kts 358°
2026-05-06 16:01 50.63732 19.90580 11819 ft 361 kts 358°
2026-05-06 16:01 50.66239 19.90621 11825 ft 362 kts 358°
2026-05-06 16:02 50.68808 19.90674 12177 ft 366 kts 358°
2026-05-06 16:02 50.71357 19.90731 13132 ft 366 kts 358°
2026-05-06 16:02 50.73915 19.90788 13912 ft 370 kts 358°
2026-05-06 16:02 50.76512 19.90842 14604 ft 376 kts 358°
2026-05-06 16:03 50.79144 19.90887 15292 ft 380 kts 357°
2026-05-06 16:03 50.81809 19.90931 15960 ft 386 kts 357°
2026-05-06 16:03 50.84511 19.90975 16609 ft 391 kts 357°
2026-05-06 16:03 50.87249 19.91020 17279 ft 396 kts 357°
2026-05-06 16:04 50.90028 19.91065 17908 ft 402 kts 357°
2026-05-06 16:04 50.92835 19.91086 18501 ft 406 kts 356°
2026-05-06 16:04 50.95672 19.91096 19116 ft 409 kts 356°
2026-05-06 16:04 50.98531 19.91169 19694 ft 415 kts
2026-05-06 16:05 51.01370 19.92139 20305 ft 423 kts 18°
2026-05-06 16:05 51.04006 19.94290 20886 ft 431 kts 34°
2026-05-06 16:05 51.06430 19.97135 21465 ft 434 kts 34°
2026-05-06 16:05 51.09070 19.99432 22043 ft 433 kts 18°
2026-05-06 16:06 51.11979 20.00589 22600 ft 430 kts
2026-05-06 16:06 51.14951 20.00537 23158 ft 426 kts 347°
2026-05-06 16:06 51.17786 19.99334 23668 ft 421 kts 334°
2026-05-06 16:06 51.20492 19.97560 24150 ft 422 kts 332°
2026-05-06 16:07 51.23213 19.95758 24622 ft 425 kts 333°
2026-05-06 16:07 51.25990 19.94069 25109 ft 429 kts 334°
2026-05-06 16:07 51.28819 19.92481 25560 ft 433 kts 336°
2026-05-06 16:07 51.31686 19.90950 26003 ft 436 kts 336°
2026-05-06 16:08 51.34576 19.89442 26444 ft 439 kts 336°
2026-05-06 16:08 51.37485 19.87934 26875 ft 441 kts 336°
2026-05-06 16:08 51.40417 19.86417 27295 ft 444 kts 336°
2026-05-06 16:08 51.43404 19.84867 27703 ft 446 kts 336°
2026-05-06 16:09 51.46369 19.83324 28096 ft 449 kts 336°
2026-05-06 16:09 51.49344 19.81765 28472 ft 451 kts 336°
2026-05-06 16:09 51.52380 19.80170 28842 ft 454 kts 336°
2026-05-06 16:09 51.55349 19.78611 29181 ft 457 kts 336°
2026-05-06 16:10 51.58378 19.77025 29536 ft 459 kts 336°
2026-05-06 16:10 51.61424 19.75431 29877 ft 462 kts 336°
2026-05-06 16:10 51.64486 19.73825 30200 ft 463 kts 336°
2026-05-06 16:10 51.67558 19.72211 30535 ft 465 kts 336°
2026-05-06 16:11 51.70625 19.70599 31011 ft 462 kts 336°
2026-05-06 16:11 51.73633 19.69012 31517 ft 459 kts 336°
2026-05-06 16:11 51.76653 19.67411 32036 ft 456 kts 336°
2026-05-06 16:11 51.79696 19.65795 32571 ft 452 kts 336°
2026-05-06 16:12 51.82675 19.64255 33110 ft 448 kts 337°
2026-05-06 16:12 51.85648 19.62805 33662 ft 444 kts 338°
2026-05-06 16:12 51.88595 19.61389 34144 ft 439 kts 338°
2026-05-06 16:12 51.91500 19.59988 34628 ft 433 kts 338°
2026-05-06 16:13 51.94363 19.58595 35117 ft 426 kts 337°
2026-05-06 16:13 51.97183 19.57213 35561 ft 421 kts 337°
2026-05-06 16:13 51.99992 19.55827 35716 ft 423 kts 338°
2026-05-06 16:13 52.02826 19.54424 35756 ft 429 kts 338°
2026-05-06 16:14 52.08612 19.51557 35749 ft 441 kts 338°
2026-05-06 16:14 52.14557 19.48612 35750 ft 453 kts 338°
2026-05-06 16:15 52.20630 19.45603 35746 ft 456 kts 338°
2026-05-06 16:15 52.26692 19.42592 35744 ft 455 kts 338°
2026-05-06 16:16 52.32794 19.39547 35746 ft 456 kts 338°
2026-05-06 16:16 52.38895 19.36493 35762 ft 455 kts 338°
2026-05-06 16:17 52.44953 19.33452 35745 ft 455 kts 337°
2026-05-06 16:17 52.51055 19.30379 35747 ft 455 kts 337°
2026-05-06 16:18 52.57071 19.27342 35751 ft 456 kts 337°
2026-05-06 16:18 52.63166 19.24255 35750 ft 455 kts 337°
2026-05-06 16:19 52.69223 19.21177 35748 ft 455 kts 337°
2026-05-06 16:19 52.74257 19.18614 35752 ft 455 kts 337°
2026-05-06 16:20 52.80311 19.15521 35749 ft 455 kts 337°
2026-05-06 16:20 52.86355 19.12426 35752 ft 455 kts 337°
2026-05-06 16:21 52.92401 19.09320 35750 ft 455 kts 337°
2026-05-06 16:21 52.98414 19.06225 35504 ft 450 kts 337°
2026-05-06 16:22 53.01404 19.04684 34986 ft 449 kts 336°
2026-05-06 16:22 53.04421 19.03124 34351 ft 449 kts 336°
2026-05-06 16:22 53.07407 19.01578 33684 ft 449 kts 336°
2026-05-06 16:22 53.10386 19.00034 32904 ft 450 kts 336°
2026-05-06 16:23 53.13380 18.98477 32083 ft 451 kts 336°
2026-05-06 16:23 53.16381 18.96916 31258 ft 453 kts 336°
2026-05-06 16:23 53.19401 18.95342 30448 ft 455 kts 336°
2026-05-06 16:23 53.22423 18.93766 29723 ft 455 kts 336°
2026-05-06 16:24 53.25394 18.92215 28956 ft 453 kts 336°
2026-05-06 16:24 53.28402 18.90640 28050 ft 454 kts 336°
2026-05-06 16:24 53.31410 18.89065 27315 ft 451 kts 336°
2026-05-06 16:24 53.34390 18.87503 26595 ft 448 kts 336°
2026-05-06 16:25 53.37362 18.85941 25898 ft 446 kts 337°
2026-05-06 16:25 53.40318 18.84383 25195 ft 444 kts 337°
2026-05-06 16:25 53.43295 18.82813 24513 ft 442 kts 337°
2026-05-06 16:25 53.46209 18.81274 24108 ft 433 kts 337°
2026-05-06 16:26 53.49043 18.79781 23827 ft 422 kts 337°
2026-05-06 16:26 53.51873 18.78491 23268 ft 423 kts 343°
2026-05-06 16:26 53.54791 18.77839 22618 ft 425 kts 352°
2026-05-06 16:26 53.57730 18.77535 22033 ft 421 kts 351°
2026-05-06 16:27 53.60637 18.77202 21456 ft 417 kts 351°
2026-05-06 16:27 53.63515 18.76865 20942 ft 412 kts 351°
2026-05-06 16:27 53.66330 18.76540 20670 ft 398 kts 351°
2026-05-06 16:27 53.69043 18.76232 20292 ft 383 kts 351°
2026-05-06 16:28 53.71662 18.75934 19847 ft 372 kts 351°
2026-05-06 16:28 53.74222 18.75603 19284 ft 364 kts 346°
2026-05-06 16:28 53.76586 18.74464 18724 ft 346 kts 328°
2026-05-06 16:28 53.78547 18.72385 18194 ft 330 kts 313°
2026-05-06 16:29 53.80231 18.69816 17603 ft 324 kts 311°
2026-05-06 16:29 53.81888 18.67286 17020 ft 318 kts 312°
2026-05-06 16:29 53.83524 18.64800 16465 ft 313 kts 312°
2026-05-06 16:29 53.85134 18.62350 15887 ft 309 kts 312°
2026-05-06 16:30 53.86720 18.59933 15345 ft 305 kts 312°
2026-05-06 16:30 53.87783 18.58310 14983 ft 305 kts 312°
2026-05-06 16:30 53.89862 18.55129 14344 ft 302 kts 312°
2026-05-06 16:30 53.91412 18.52759 13813 ft 299 kts 312°
2026-05-06 16:31 53.92947 18.50407 13202 ft 296 kts 312°
2026-05-06 16:31 53.94473 18.48067 12608 ft 294 kts 312°
2026-05-06 16:31 53.95985 18.45744 12013 ft 293 kts 312°
2026-05-06 16:31 53.97498 18.43449 11418 ft 292 kts 315°
2026-05-06 16:32 53.99187 18.41500 10847 ft 295 kts 326°
2026-05-06 16:32 54.01030 18.39952 10293 ft 295 kts 329°
2026-05-06 16:32 54.02870 18.38423 9723 ft 294 kts 329°
2026-05-06 16:32 54.04692 18.36893 9139 ft 291 kts 329°
2026-05-06 16:33 54.06498 18.35374 8585 ft 288 kts 329°
2026-05-06 16:33 54.08287 18.33867 8025 ft 286 kts 329°
2026-05-06 16:33 54.10063 18.32369 7492 ft 283 kts 329°
2026-05-06 16:34 54.13557 18.29421 6852 ft 283 kts 329°
2026-05-06 16:34 54.15325 18.27924 6692 ft 281 kts 329°
2026-05-06 16:34 54.17058 18.26460 6568 ft 278 kts 329°
2026-05-06 16:34 54.18798 18.24988 6451 ft 279 kts 329°
2026-05-06 16:35 54.20534 18.23518 6334 ft 278 kts 329°
2026-05-06 16:35 54.22261 18.22055 6212 ft 277 kts 329°
2026-05-06 16:35 54.23985 18.20591 6085 ft 276 kts 329°
2026-05-06 16:35 54.25741 18.19248 5950 ft 279 kts 342°
2026-05-06 16:36 54.27681 18.19100 5832 ft 284 kts
2026-05-06 16:36 54.29572 18.20154 5710 ft 287 kts 21°
2026-05-06 16:36 54.31381 18.21546 5576 ft 282 kts 21°
2026-05-06 16:36 54.33279 18.22171 5453 ft 278 kts 354°
2026-05-06 16:37 54.35109 18.21285 5326 ft 273 kts 327°
2026-05-06 16:37 54.36465 18.19122 5202 ft 264 kts 299°
2026-05-06 16:37 54.37121 18.16212 5081 ft 263 kts 281°
2026-05-06 16:37 54.37491 18.13153 4996 ft 261 kts 279°
2026-05-06 16:38 54.37915 18.10133 5004 ft 260 kts 283°
2026-05-06 16:38 54.38459 18.07165 5003 ft 262 kts 287°
2026-05-06 16:38 54.39093 18.04224 5002 ft 263 kts 289°
2026-05-06 16:38 54.39774 18.01315 5007 ft 263 kts 290°
2026-05-06 16:39 54.40476 17.98408 5003 ft 264 kts 290°
2026-05-06 16:39 54.41182 17.95499 5008 ft 264 kts 290°
2026-05-06 16:39 54.41888 17.92591 5013 ft 263 kts 291°
2026-05-06 16:39 54.42581 17.89726 5011 ft 254 kts 291°
2026-05-06 16:40 54.43499 17.87258 5018 ft 242 kts 316°
2026-05-06 16:40 54.45000 17.85931 5009 ft 251 kts 347°
2026-05-06 16:40 54.46739 17.86046 5020 ft 253 kts 15°
2026-05-06 16:40 54.48358 17.87102 5003 ft 240 kts 23°
2026-05-06 16:41 54.49734 17.88458 5008 ft 218 kts 43°
2026-05-06 16:41 54.50575 17.90498 5013 ft 206 kts 71°
2026-05-06 16:41 54.50746 17.92889 5001 ft 201 kts 100°
2026-05-06 16:41 54.50292 17.95138 4851 ft 200 kts 115°
2026-05-06 16:42 54.49752 17.97325 4691 ft 198 kts 114°
2026-05-06 16:42 54.49221 17.99502 4543 ft 197 kts 114°
2026-05-06 16:42 54.48697 18.01662 4381 ft 195 kts 114°
2026-05-06 16:42 54.48180 18.03811 4225 ft 194 kts 113°
2026-05-06 16:43 54.47665 18.05951 4065 ft 193 kts 113°
2026-05-06 16:43 54.47154 18.08071 3913 ft 192 kts 113°
2026-05-06 16:43 54.46644 18.10183 3754 ft 191 kts 113°
2026-05-06 16:43 54.46137 18.12278 3606 ft 189 kts 113°
2026-05-06 16:44 54.45634 18.14356 3503 ft 187 kts 113°
2026-05-06 16:44 54.45132 18.16426 3502 ft 188 kts 113°
2026-05-06 16:44 54.44634 18.18482 3341 ft 185 kts 112°
2026-05-06 16:44 54.44142 18.20514 3010 ft 184 kts 112°
2026-05-06 16:45 54.43653 18.22529 2714 ft 181 kts 112°
2026-05-06 16:45 54.43178 18.24481 2524 ft 171 kts 111°
2026-05-06 16:45 54.42723 18.26357 2505 ft 177 kts 111°
2026-05-06 16:45 54.42255 18.28280 2490 ft 164 kts 111°
2026-05-06 16:46 54.41847 18.29946 2472 ft 142 kts 111°
2026-05-06 16:46 54.41458 18.31533 2337 ft 144 kts 111°
2026-05-06 16:46 54.41074 18.33109 2092 ft 141 kts 110°
2026-05-06 16:46 54.40695 18.34649 1854 ft 141 kts 110°
2026-05-06 16:47 54.40315 18.36200 1638 ft 141 kts 109°
2026-05-06 16:47 54.39933 18.37747 1412 ft 139 kts 109°
2026-05-06 16:47 54.39557 18.39281 1185 ft 140 kts 109°
2026-05-06 16:47 54.39177 18.40821 970 ft 139 kts 108°
2026-05-06 16:48 54.38799 18.42346 752 ft 139 kts 107°
2026-05-06 16:48 54.38428 18.43860 563 ft 137 kts 107°
2026-05-06 16:48 54.38060 18.45386 493 ft 141 kts 107°
2026-05-06 16:48 54.37709 18.46836 451 ft 111 kts 113°
2026-05-06 16:49 54.37486 18.47736 461 ft 59 kts 114°
2026-05-06 16:49 54.37340 18.48321 471 ft 49 kts 113°
2026-05-06 16:49 54.37218 18.48813 484 ft 41 kts 113°
2026-05-06 16:49 54.37182 18.49206 489 ft 29 kts 53°
2026-05-06 16:50 54.37273 18.49293 491 ft 0 kts 358°
2026-05-06 16:51 54.37274 18.49293 491 ft 1 kts 358°
2026-05-06 16:52 54.37276 18.49288 492 ft 1 kts 323°
2026-05-06 16:52 54.37289 18.49233 486 ft 10 kts 294°
2026-05-06 16:52 54.37326 18.49087 485 ft 16 kts 292°
2026-05-06 16:52 54.37380 18.48876 476 ft 23 kts 291°
2026-05-06 16:53 54.37446 18.48596 471 ft 28 kts 293°
2026-05-06 16:53 54.37533 18.48254 461 ft 34 kts 293°
2026-05-06 16:53 54.37631 18.47872 459 ft 36 kts 290°
2026-05-06 16:53 54.37729 18.47463 454 ft 38 kts 291°
2026-05-06 16:54 54.37818 18.47104 453 ft 32 kts 295°
2026-05-06 16:54 54.37903 18.46748 453 ft 33 kts 293°
2026-05-06 16:54 54.37993 18.46381 453 ft 34 kts 292°
2026-05-06 16:54 54.38083 18.46074 453 ft 22 kts 323°
2026-05-06 16:55 54.38124 18.46056 453 ft 2 kts 21°
2026-05-06 16:55 54.38149 18.46076 453 ft 6 kts 28°
2026-05-06 16:55 54.38178 18.46145 453 ft 10 kts 85°
2026-05-06 16:55 54.38145 18.46296 453 ft 17 kts 113°
2026-05-06 16:56 54.38100 18.46482 453 ft 12 kts 111°
2026-05-06 16:56 54.38121 18.46550 452 ft 5 kts 15°
2026-05-06 16:56 54.38129 18.46556 452 ft 0 kts 22°
2026-05-06 16:56 54.38131 18.46558 452 ft 2 kts 25°
2026-05-06 16:57 54.38132 18.46558 452 ft 0 kts 25°